Weather History for KJFK - November, 2011

Change the Weather History Date:

Wednesday, November 30, 2011

  Actual Average Record
Temperature  
Mean Temperature 49 °F 43 °F  
Max Temperature 53 °F 49 °F 64 °F (2005)
Min Temperature 44 °F 36 °F 19 °F (1976)
Degree Days  
Heating Degree Days 16 22  
Month to date heating degree days 416 527  
Since 1 July heating degree days 667 824  
Cooling Degree Days 0 0  
Month to date cooling degree days 0 0  
Year to date cooling degree days 1267 1005  
Moisture  
Dew Point 36 °F    
Average Humidity 63    
Maximum Humidity 82    
Minimum Humidity 44    
Precipitation  
Precipitation T in 0.12 in 0.79 in (2005)
Month to date precipitation 3.24 3.30  
Year to date precipitation 52.65 39.38  
Snow  
Snow 0.00 in 0.00 in 2.10 in (1967)
Month to date snowfall 0.0 0.2  
Since 1 July snowfall 1.5 0.2  
Snow Depth 0.00 in    
Sea Level Pressure  
Sea Level Pressure 29.75 in    
Wind  
Wind Speed 18 mph (WSW)    
Max Wind Speed 26 mph    
Max Gust Speed 32 mph    
Visibility 10 miles    
Events Rain    
T = Trace of Precipitation, MM = Missing Value Source: NWS Daily Summary

Daily Weather History Graph

Daily Weather History Graph

Search for Another Location

Airport or City:

Trip Planner

Search our weather history database for the weather conditions in past years. The results will help you decide how hot, cold, wet, or windy it might be!

Date:

Astronomy

Nov. 30, 2011 Rise Set
Actual Time 6:58 AM EST 4:28 PM EST
Civil Twilight 6:27 AM EST 4:59 PM EST
Nautical Twilight 5:54 AM EST 5:33 PM EST
Astronomical Twilight 5:21 AM EST 6:05 PM EST
Moon 11:13 AM EST (11/30) 10:24 PM EST (11/30)
Length of Visible Light 10h 31m
Length of Day
9h 30m
Waxing Crescent, 33% of the Moon is Illuminated
Nov 30
Waxing Crescent
Dec 2
First Quarter
Dec 10
Full
Dec 17
Last Quarter
Dec 24
New

Hourly Weather History & Observations

Time (EST) Temp. Windchill Dew Point Humidity Pressure Visibility Wind Dir Wind Speed Gust Speed Precip Events Conditions
12:51 AM 51.1 °F - 46.9 °F 86% 29.67 in 10.0 mi SW 15.0 mph - 0.00 in Rain Light Rain
1:51 AM 51.1 °F - 45.0 °F 80% 29.68 in 10.0 mi SW 20.7 mph 26.5 mph 0.00 in   Overcast
2:51 AM 51.1 °F - 43.0 °F 74% 29.68 in 10.0 mi SW 18.4 mph 28.8 mph N/A   Overcast
3:38 AM 48.2 °F - 41.0 °F 76% 29.68 in 10.0 mi SW 16.1 mph - N/A   Scattered Clouds
3:51 AM 48.9 °F - 41.0 °F 74% 29.68 in 10.0 mi SW 16.1 mph - N/A   Scattered Clouds
4:51 AM 48.0 °F - 41.0 °F 77% 29.68 in 10.0 mi SW 20.7 mph 26.5 mph N/A   Scattered Clouds
5:51 AM 46.9 °F - 41.0 °F 80% 29.69 in 10.0 mi WSW 17.3 mph 28.8 mph N/A   Scattered Clouds
5:58 AM 46.4 °F 39.2 °F 41.0 °F 81% 29.69 in 10.0 mi SW 18.4 mph 24.2 mph N/A   Mostly Cloudy
6:17 AM 46.4 °F 39.0 °F 41.0 °F 81% 29.69 in 10.0 mi SW 19.6 mph 26.5 mph N/A   Scattered Clouds
6:51 AM 46.0 °F 39.3 °F 39.9 °F 79% 29.70 in 10.0 mi SW 16.1 mph - N/A   Scattered Clouds
7:27 AM 46.4 °F 39.2 °F 39.2 °F 76% 29.71 in 10.0 mi SW 18.4 mph - N/A   Mostly Cloudy
7:51 AM 46.0 °F 39.3 °F 39.9 °F 79% 29.72 in 10.0 mi SW 16.1 mph - N/A   Mostly Cloudy
8:16 AM 46.4 °F 39.5 °F 39.2 °F 76% 29.71 in 10.0 mi SW 17.3 mph 24.2 mph N/A   Scattered Clouds
8:43 AM 46.4 °F 38.5 °F 39.2 °F 76% 29.72 in 10.0 mi WSW 21.9 mph 26.5 mph N/A   Mostly Cloudy
8:51 AM 46.9 °F - 39.0 °F 74% 29.72 in 10.0 mi WSW 18.4 mph 26.5 mph N/A   Mostly Cloudy
9:19 AM 48.2 °F - 37.4 °F 66% 29.73 in 10.0 mi West 18.4 mph 25.3 mph N/A   Scattered Clouds
9:51 AM 48.9 °F - 36.0 °F 61% 29.73 in 10.0 mi West 19.6 mph - N/A   Scattered Clouds
10:51 AM 50.0 °F - 36.0 °F 59% 29.73 in 10.0 mi WSW 16.1 mph - N/A   Scattered Clouds
11:51 AM 52.0 °F - 33.1 °F 49% 29.72 in 10.0 mi WSW 19.6 mph - N/A   Mostly Cloudy
12:51 PM 52.0 °F - 30.9 °F 45% 29.71 in 10.0 mi WSW 20.7 mph - N/A   Scattered Clouds
1:51 PM 50.0 °F - 30.0 °F 46% 29.72 in 10.0 mi West 17.3 mph 25.3 mph N/A   Mostly Cloudy
2:51 PM 50.0 °F - 30.9 °F 48% 29.74 in 10.0 mi WSW 18.4 mph - N/A   Mostly Cloudy
3:51 PM 48.9 °F - 28.9 °F 46% 29.76 in 10.0 mi WSW 21.9 mph 26.5 mph N/A   Mostly Cloudy
4:51 PM 48.0 °F - 30.0 °F 50% 29.79 in 10.0 mi West 17.3 mph - N/A   Overcast
5:51 PM 46.9 °F - 30.0 °F 52% 29.81 in 10.0 mi West 17.3 mph 24.2 mph N/A   Mostly Cloudy
6:51 PM 46.9 °F - 30.9 °F 54% 29.84 in 10.0 mi West 17.3 mph - N/A   Mostly Cloudy
7:51 PM 46.9 °F - 30.0 °F 52% 29.86 in 10.0 mi West 19.6 mph 27.6 mph N/A   Mostly Cloudy
8:51 PM 46.0 °F 40.6 °F 30.0 °F 54% 29.89 in 10.0 mi West 11.5 mph - N/A   Scattered Clouds
9:51 PM 46.0 °F 39.0 °F 30.9 °F 56% 29.91 in 10.0 mi West 17.3 mph 21.9 mph N/A   Mostly Cloudy
10:51 PM 45.0 °F 39.3 °F 30.9 °F 58% 29.93 in 10.0 mi West 11.5 mph - N/A   Mostly Cloudy
11:51 PM 44.1 °F 35.4 °F 28.9 °F 55% 29.96 in 10.0 mi NW 21.9 mph 32.2 mph N/A   Mostly Cloudy